Location: *
(6.0000°S, 32.3997°W)
Time: 19:59:36
(UTC+00:00)

GPS 2-04 Rocket1 - Pass Details

Date: 01 April 2020
Orbit: 419 x 549 km, 35.6° (Epoch: 28 May)

Event Time Altitude Azimuth Distance (km) Brightness Sun altitude
Rises 21:44:58 0° 237° (WSW) 2,609 7.1 -23.3°
Reaches altitude 10° 21:47:11 10° 239° (WSW) 1,742 6.1 -23.8°
Enters shadow 21:50:50 63° 289° (WNW) 589 3.1 -24.7°
